[[{"header":{"parameterUnit":"m.s-1","parameterCategory":1,"la1":30.2991,"la2":30.254,"lo1":-89.0895,"lo2":-89.0444,"dy":0.0017,"dx":0.0017,"nx":28,"ny":28,"refTime":"2024-04-29T09:00:00:Z","depth":0,"parameterNumber":2,"parameterNumberName":"U-component_of_WINDS"},"data":[0,0,0,0,0,0,0,0,0,0,0,0,0,0,0,0,0,0,0,0,0,0,0,0,0,0,0,0,0,0,0,0,0,0,0,0,0,0,0,0,0,0,0,0,0,0,0,0,0,0,0,0,0,0,0,0,0,0,-4.9254,-4.9255,0,-4.9409,-4.9411,-4.9413,-4.9454,-4.9453,-4.9452,-4.9451,-4.961,-4.9615,-4.962,0,0,0,0,0,0,0,0,0,0,0,0,0,-4.8992,-4.8997,-4.9253,-4.9255,-4.9257,-4.9409,-4.9411,-4.9413,-4.9454,-4.9453,-4.9452,-4.9451,-4.9608,-4.9614,-4.962,0,0,0,0,0,0,0,0,0,0,0,0,0,-4.9122,-4.8998,-4.9253,-4.9296,-4.9302,-4.9408,-4.9411,-4.9414,-4.9455,-4.9453,-4.9452,-4.945,-4.9606,-4.9614,-4.9621,-4.9696,0,0,-4.9645,-4.9648,0,0,0,0,0,0,0,0,-4.9115,-4.9132,-4.9288,-4.9293,-4.93,-4.9411,-4.9377,-4.9508,-4.9455,-4.9396,-4.9451,-4.945,-4.9545,-4.9557,-4.959,-4.9704,-4.971,-4.9645,-4.965,-4.9653,-4.9655,0,0,0,0,0,0,0,-4.9106,-4.9126,-4.9315,-4.929,-4.9297,-4.9308,-4.9325,-4.9402,-4.9476,-4.9401,-4.9405,-4.9423,-4.9548,-4.9582,-4.9594,-4.9713,-4.9645,-4.9652,-4.9657,-4.966,-4.9896,-4.9898,0,0,0,0,0,0,-4.909,-4.9118,-4.931,-4.932,-4.9202,-4.9314,-4.9333,-4.9377,-4.9476,-4.949,-4.9424,-4.9424,-4.957,-4.9585,-4.9599,-4.9693,-4.9653,-4.966,-4.9665,-4.9894,-4.9897,-4.9898,0,0,0,0,0,0,-4.9084,-4.9106,-4.9304,-4.922,-4.9246,-4.932,-4.9369,-4.938,-4.9415,-4.9493,-4.9506,-4.9445,-4.9569,-4.9589,-4.9672,-4.9699,-4.9664,-4.9671,-4.9892,-4.9895,-4.9897,-4.988,0,0,0,0,0,0,-4.9076,-4.9104,-4.9133,-4.922,-4.925,-4.9373,-4.937,-4.9384,-4.9428,-4.943,-4.9516,-4.9529,-4.957,-4.966,-4.9679,-4.9709,-4.9677,-4.989,-4.9894,-4.9897,-4.9879,-4.9882,-4.9885,0,0,0,0,0,-4.9067,-4.9122,-4.9134,-4.9157,-4.9288,-4.9375,-4.9392,-4.9437,-4.943,-4.946,-4.951,-4.9527,-4.9694,-4.9668,-4.969,-4.9722,-4.9889,-4.9893,-4.9896,-4.9877,-4.9881,-4.9885,0,0,0,0,0,0,-4.9035,-4.9134,-4.9149,-4.9234,-4.9296,-4.9382,-4.942,-4.944,-4.9505,-4.9504,-4.9558,-4.9577,-4.9657,-4.9699,-4.9669,-4.98,-4.9791,-4.98,-4.9769,-4.9774,-4.9777,-4.9764,-4.9683,0,0,0,0,0,-4.9038,-4.9101,-4.9184,-4.9251,-4.9281,-4.9346,-4.9385,-4.9415,-4.9481,-4.9507,-4.9564,-4.9627,-4.9694,-4.9737,-4.9803,-4.9886,-4.9905,-4.9919,-4.9922,-4.9924,-4.993,-4.9977,-4.9984,-4.9911,-4.9911,-4.9911,0,0,-4.9045,-4.9107,-4.9143,-4.9246,-4.9298,-4.9361,-4.9367,-4.9434,-4.9481,-4.9518,-4.9599,-4.9643,-4.9718,-4.9801,-4.9841,-4.9838,-4.9955,-4.9929,-4.993,-4.9935,-4.9982,-4.9988,-4.9994,-4.9914,-4.9913,-4.9913,0,0,-4.9089,-4.9142,-4.9204,-4.9256,-4.9334,-4.9376,-4.9391,-4.9475,-4.9505,-4.9588,-4.9617,-4.9675,-4.9789,-4.9841,-4.9882,-4.9948,-4.9965,-4.9968,-4.9982,-5.0027,-5.0033,-5.0038,-5.006,-5.0068,-4.9974,-4.9974,-4.9974,0,-4.9087,-4.9183,-4.9233,-4.9298,-4.9342,-4.938,-4.9442,-4.949,-4.9586,-4.9615,-4.9612,-4.9756,-4.9809,-4.9905,-4.9921,-4.9954,-4.9972,-4.9956,-5.0028,-5.0034,-5.004,-5.0061,-5.007,-4.9974,-4.9974,-4.9974,-4.9974,0,-4.9176,-4.9243,-4.9283,-4.9374,-4.9424,-4.9488,-4.9547,-4.9591,-4.9618,-4.9661,-4.9745,-4.981,-4.989,-4.9916,-4.9942,-5.0015,-5.0011,-5.0018,-5.0009,-5.0045,-5.0066,-5.0075,-4.9973,-4.9973,-4.9973,-4.9973,0,0,-4.9201,-4.9321,-4.9335,-4.9377,-4.9467,-4.9519,-4.9585,-4.9663,-4.9699,-4.9765,-4.9821,-4.9918,-4.9924,-4.9971,-5.0004,-5.0044,-5.009,-5.0045,-5.0048,-5.005,-5.0174,-5.0167,-5.0176,-5.0104,-5.0106,-5.0107,-5.0167,0,-4.9255,-4.9373,-4.942,-4.9516,-4.9578,-4.9615,-4.9673,-4.9734,-4.9777,-4.9836,-4.9884,-4.995,-4.9955,-4.9983,-5.0025,-5.0076,-5.0116,-5.0073,-5.0155,-5.0157,-5.0132,-5.0187,-5.018,-5.0233,-5.0176,-5.0178,-5.0179,0,-4.9332,-4.9398,-4.95,-4.9583,-4.9611,-4.9661,-4.9737,-4.9793,-4.9864,-4.9893,-4.9946,-4.9977,-5.0047,-5.0037,-5.0134,-5.0104,-5.0141,-5.0172,-5.0175,-5.0182,-5.0168,-5.0194,-5.0252,-5.0259,-5.0192,-5.0191,-5.019,0,-4.9338,-4.9453,-4.9529,-4.9564,-4.9663,-4.9697,-4.974,-4.981,-4.9854,-4.9921,-4.995,-5.0024,-5.0064,-5.0121,-5.0171,-5.0159,-5.0264,-5.0258,-5.0289,-5.0287,-5.0306,-5.0304,-5.0369,-5.0334,-5.0334,-5.0334,-5.0334,0,-4.9391,-4.9451,-4.9533,-4.9579,-4.9648,-4.9703,-4.9769,-4.9815,-4.9877,-4.9933,-4.9971,-5.0022,-5.0087,-5.0147,-5.0188,-5.0262,-5.028,-5.0305,-5.0314,-5.03,-5.0296,-5.0323,-5.0319,-5.0336,-5.0336,-5.0335,-5.0335,0,-4.9408,-4.9465,-4.9549,-4.9637,-4.966,-4.9707,-4.9782,-4.9828,-4.9874,-4.9944,-4.9964,-5.0035,-5.0108,-5.0165,-5.026,-5.0287,-5.0365,-5.0376,-5.034,-5.0345,-5.0372,-5.0368,-5.0454,-5.0467,-5.0425,-5.0426,-5.0426,0,-4.9436,-4.9484,-4.9576,-4.9617,-4.9659,-4.9724,-4.9769,-4.9826,-4.9872,-4.9957,-4.9993,-5.0069,-5.0132,-5.0247,-5.0307,-5.038,-5.0392,-5.0417,-5.0403,-5.0387,-5.039,-5.0386,-5.039,-5.0418,-5.0418,-5.0418,-5.0418,0,-4.9481,-4.9507,-4.9571,-4.9645,-4.9699,-4.976,-4.9822,-4.9853,-4.9921,-4.9971,-5.0046,-5.0095,-5.0192,-5.0267,-5.0346,-5.0391,-5.0416,-5.0423,-5.0434,-5.0418,-5.0394,-5.0406,-5.0343,-5.042,-5.042,-5.042,-5.042,-5.0419,-4.9503,-4.9547,-4.9619,-4.9689,-4.9742,-4.98,-4.9847,-4.99,-4.9963,-5.0046,-5.0077,-5.0153,-5.0225,-5.0334,-5.0379,-5.0441,-5.0442,-5.0458,-5.0461,-5.0464,-5.0461,-5.0387,-5.0456,-5.0456,-5.0456,-5.0456,-5.0456,0,-4.9548,-4.9597,-4.9661,-4.9747,-4.9802,-4.9822,-4.9892,-4.9937,-5.0004,-5.0069,-5.0131,-5.0217,-5.029,-5.0357,-5.0433,-5.0469,-5.0482,-5.0487,-5.0483,-5.0493,-5.0457,-5.0439,-5.0475,-5.0475,-5.0475,-5.0475,-5.0475,-5.0475,-4.9577,-4.9652,-4.9687,-4.9789,-4.9838,-4.9913,-4.9951,-5.0004,-5.0056,-5.0151,-5.0211,-5.0255,-5.032,-5.0402,-5.047,-5.0488,-5.0513,-5.0514,-5.0535,-5.0499,-5.0496,-5.0493,-5.0477,-5.052,-5.052,-5.0566,-5.0566,-5.0567]},{"header":{"parameterUnit":"m.s-1","parameterCategory":1,"la1":30.2991,"la2":30.254,"lo1":-89.0895,"lo2":-89.0444,"dy":0.0017,"dx":0.0017,"nx":28,"ny":28,"refTime":"2024-04-29T09:00:00:Z","depth":0,"parameterNumber":3,"parameterNumberName":"V-component_of_WINDS"},"data":[0,0,0,0,0,0,0,0,0,0,0,0,0,0,0,0,0,0,0,0,0,0,0,0,0,0,0,0,0,0,0,0,0,0,0,0,0,0,0,0,0,0,0,0,0,0,0,0,0,0,0,0,0,0,0,0,0,0,4.3203,4.3203,0,4.3216,4.3216,4.3216,4.3193,4.3192,4.3191,4.319,4.3202,4.3203,4.3204,0,0,0,0,0,0,0,0,0,0,0,0,0,4.3156,4.3157,4.3202,4.3203,4.3203,4.3216,4.3216,4.3216,4.3193,4.3192,4.3191,4.319,4.3201,4.3203,4.3204,0,0,0,0,0,0,0,0,0,0,0,0,0,4.3173,4.3157,4.3202,4.3193,4.3192,4.3216,4.3216,4.3216,4.3193,4.3192,4.3191,4.319,4.3201,4.3203,4.3204,4.3237,0,0,4.3209,4.3209,0,0,0,0,0,0,0,0,4.3172,4.3175,4.3194,4.3194,4.3193,4.3201,4.3204,4.3223,4.3193,4.3193,4.319,4.3189,4.3202,4.3204,4.3209,4.3237,4.3238,4.3209,4.321,4.321,4.3211,0,0,0,0,0,0,0,4.3171,4.3174,4.3208,4.3194,4.3194,4.3188,4.3189,4.3207,4.3204,4.3193,4.3191,4.3193,4.3202,4.3207,4.3209,4.3238,4.3209,4.321,4.3211,4.3212,4.3295,4.3296,0,0,0,0,0,0,4.3172,4.3174,4.3207,4.3208,4.318,4.3189,4.3191,4.32,4.3204,4.3203,4.3194,4.3192,4.3205,4.3207,4.3209,4.3248,4.321,4.3212,4.3213,4.3294,4.3296,4.3297,0,0,0,0,0,0,4.3171,4.3175,4.3207,4.319,4.3194,4.3191,4.3202,4.3201,4.3206,4.3205,4.3204,4.32,4.3204,4.3207,4.3231,4.3248,4.3213,4.3214,4.3292,4.3294,4.3296,4.3327,0,0,0,0,0,0,4.3169,4.3175,4.3187,4.3191,4.3195,4.3228,4.3203,4.3202,4.3209,4.3206,4.321,4.321,4.3204,4.3228,4.3232,4.325,4.3215,4.3291,4.3293,4.3296,4.3324,4.3329,4.3334,0,0,0,0,0,4.3168,4.3194,4.3188,4.3192,4.3211,4.3229,4.3231,4.3225,4.3211,4.3223,4.3222,4.321,4.3246,4.3231,4.3235,4.3253,4.329,4.3293,4.3295,4.3322,4.3328,4.3334,0,0,0,0,0,0,4.3191,4.3194,4.3187,4.3216,4.3223,4.3225,4.3241,4.3232,4.3242,4.3239,4.3229,4.323,4.3256,4.3257,4.324,4.3286,4.3265,4.3269,4.3284,4.329,4.3295,4.3294,4.3216,0,0,0,0,0,4.32,4.3215,4.3217,4.3242,4.3246,4.3243,4.3251,4.3245,4.3251,4.3254,4.3255,4.3261,4.3274,4.3282,4.3294,4.3324,4.3325,4.3339,4.3344,4.3348,4.3352,4.3369,4.3375,4.3307,4.3306,4.3306,0,0,4.3217,4.3221,4.3231,4.3247,4.3251,4.3267,4.3245,4.3263,4.3274,4.3256,4.3279,4.328,4.3286,4.3314,4.3326,4.3315,4.3371,4.3352,4.3355,4.3356,4.3372,4.3379,4.3385,4.3309,4.3308,4.3308,0,0,4.3258,4.3262,4.3284,4.329,4.3297,4.3296,4.3301,4.3306,4.3306,4.3329,4.3316,4.3329,4.3351,4.3357,4.3362,4.3407,4.3396,4.3411,4.3437,4.3454,4.3459,4.3464,4.348,4.3486,4.3414,4.3415,4.3415,0,4.3278,4.3302,4.3296,4.3315,4.3323,4.3309,4.3331,4.3336,4.3347,4.3352,4.3341,4.337,4.3372,4.3402,4.3413,4.3418,4.3423,4.341,4.3459,4.3464,4.3468,4.3483,4.3489,4.3416,4.3416,4.3416,4.3416,0,4.3328,4.3345,4.3361,4.3374,4.3383,4.3404,4.3401,4.3411,4.3405,4.3404,4.3428,4.3432,4.3445,4.3451,4.3445,4.348,4.3473,4.3461,4.344,4.3476,4.3491,4.3497,4.3419,4.3418,4.3418,4.3417,0,0,4.3381,4.3392,4.3398,4.3404,4.3413,4.3425,4.3445,4.3459,4.3468,4.3477,4.3493,4.3514,4.3503,4.3509,4.3503,4.3518,4.3554,4.3504,4.3504,4.3513,4.3593,4.3603,4.361,4.3547,4.3548,4.3549,4.3593,0,4.3421,4.3457,4.3453,4.3487,4.3503,4.3491,4.3509,4.3516,4.3516,4.353,4.353,4.3544,4.3528,4.3532,4.3547,4.3547,4.357,4.3544,4.3562,4.3563,4.3561,4.3617,4.3627,4.3668,4.3598,4.3599,4.36,0,4.3473,4.3485,4.3521,4.3529,4.3535,4.3551,4.3564,4.3577,4.3585,4.3585,4.3593,4.3585,4.3605,4.3585,4.3613,4.3595,4.3602,4.3604,4.3605,4.3606,4.3583,4.362,4.3681,4.3687,4.3609,4.3608,4.3607,0,4.3509,4.3534,4.3559,4.3565,4.3574,4.3586,4.359,4.3597,4.3606,4.3617,4.3623,4.3636,4.3643,4.3653,4.3649,4.3635,4.3678,4.3657,4.3678,4.3678,4.3687,4.3687,4.375,4.3692,4.3692,4.3692,4.3692,0,4.3554,4.3577,4.3576,4.3591,4.3617,4.3612,4.3637,4.3639,4.3646,4.3662,4.3652,4.3666,4.366,4.3675,4.3672,4.3696,4.3699,4.3699,4.3697,4.3699,4.37,4.3704,4.3701,4.3694,4.3693,4.3693,4.3693,0,4.3598,4.3599,4.3625,4.3633,4.3636,4.3654,4.366,4.3674,4.3675,4.3695,4.3699,4.3699,4.3716,4.3713,4.3731,4.3729,4.3759,4.3754,4.3757,4.3756,4.3777,4.3775,4.3845,4.3855,4.3791,4.3791,4.3792,0,4.3627,4.3645,4.3655,4.3665,4.3671,4.3688,4.3697,4.3694,4.3704,4.3716,4.3729,4.3745,4.3757,4.3784,4.3786,4.38,4.3795,4.3819,4.3797,4.3799,4.3796,4.3795,4.3797,4.3823,4.3824,4.3824,4.3825,0,4.3679,4.3679,4.3693,4.3709,4.3721,4.3733,4.3744,4.3752,4.375,4.3762,4.378,4.379,4.3809,4.3825,4.3838,4.3842,4.3833,4.3832,4.3838,4.384,4.3841,4.3841,4.3769,4.383,4.383,4.3829,4.3829,4.3829,4.3716,4.3732,4.3742,4.3759,4.3767,4.3778,4.3793,4.3796,4.3811,4.3827,4.3824,4.3844,4.3852,4.3869,4.3875,4.389,4.3881,4.3889,4.3891,4.3893,4.3896,4.3839,4.3892,4.3892,4.3892,4.3892,4.3892,0,4.3768,4.3774,4.379,4.3806,4.382,4.3812,4.3824,4.3836,4.3854,4.3863,4.3876,4.3897,4.3913,4.3916,4.3931,4.3943,4.394,4.3947,4.3946,4.3947,4.3903,4.3897,4.395,4.395,4.395,4.395,4.395,4.395,4.3796,4.3822,4.3824,4.3854,4.386,4.388,4.3888,4.3898,4.3905,4.3929,4.3943,4.3946,4.3953,4.3969,4.3983,4.3983,4.3989,4.3999,4.3998,4.3956,4.395,4.3945,4.3939,4.4,4.4,4.4041,4.4041,4.4042]}]]